This demonstration page uses our WeatherBlox Daily Observations layout. Learn more.

Left ArrowRight Arrow

Hourly Observations for May 3, 2018

Temp ( °F °C ) Dew Point ( °F °C ) Humidity (%) Winds ( mph kmh ) Pressure ( in mb ) Visibility ( mi km ) Precip ( " mm )
12:51 am 00:51 Clear 54 12.2 31 -0.6 42 42 NW 13 20 29.95 1014 10 16 0.00 0.00
1:51 am 01:51 Clear 52 11.1 31 -0.6 45 45 NW 6 9 29.96 1014 10 16 0.00 0.00
2:51 am 02:51 Clear 50 10 29 -1.7 44 44 WNW 8 13 29.96 1015 10 16 0.00 0.00
3:51 am 03:51 Clear 49 9.4 30 -1.1 48 48 NNW 6 9 29.98 1015 10 16 0.00 0.00
4:51 am 04:51 Clear 49 9.4 31 -0.6 50 50 SSE 7 11 30.00 1016 10 16 0.00 0.00
5:51 am 05:51 Sunny 45 7.2 29 -1.7 54 54 ESE 6 9 30.03 1017 10 16 0.00 0.00
6:51 am 06:51 Sunny 52 11.1 31 -0.6 45 45 E 3 6 30.04 1017 10 16 0.00 0.00
7:51 am 07:51 Sunny 56 13.3 31 -0.6 39 39 S 3 6 30.06 1018 10 16 0.00 0.00
8:51 am 08:51 Sunny 60 15.6 33 0.6 36 36 W 6 9 30.05 1018 10 16 0.00 0.00
9:51 am 09:51 Sunny 64 17.8 31 -0.6 29 29 W 5 7 30.03 1017 10 16 0.00 0.00
10:51 am 10:51 Sunny 67 19.4 28 -2.2 23 23 WNW 9 15 30.01 1016 10 16 0.00 0.00
11:51 am 11:51 Sunny 71 21.7 27 -2.8 19 19 W 8 13 30.00 1016 10 16 0.00 0.00
12:51 pm 12:51 Sunny 73 22.8 24 -4.4 16 16 W 14 22 29.98 1015 10 16 0.00 0.00
1:51 pm 13:51 Sunny 75 23.9 20 -6.7 12 12 W 13 20 29.96 1015 10 16 0.00 0.00
2:51 pm 14:51 Sunny 77 25 13 -10.6 9 9 WNW 8 13 29.94 1014 10 16 0.00 0.00
3:51 pm 15:51 Sunny 78 25.6 12 -11.1 8 8 NNW 15 24 29.93 1014 10 16 0.00 0.00
4:51 pm 16:51 Sunny 78 25.6 16 -8.9 9 9 NW 15 24 29.93 1014 10 16 0.00 0.00
5:51 pm 17:51 Sunny 76 24.4 16 -8.9 10 10 NW 14 22 29.95 1014 10 16 0.00 0.00
6:51 pm 18:51 Sunny 73 22.8 14 -10 10 10 WNW 14 22 29.95 1014 10 16 0.00 0.00
7:51 pm 19:51 Clear 68 20 18 -7.8 15 15 NW 7 11 29.99 1016 10 16 0.00 0.00
8:51 pm 20:51 Clear 65 18.3 19 -7.2 17 17 NNW 8 13 30.01 1016 10 16 0.00 0.00
9:51 pm 21:51 Clear 64 17.8 21 -6.1 19 19 NNW 8 13 30.03 1017 10 16 0.00 0.00
10:51 pm 22:51 Clear 63 17.2 23 -5 22 22 NW 9 15 30.03 1017 10 16 0.00 0.00
11:51 pm 23:51 Clear 62 16.7 24 -4.4 23 23 NNW 7 11 30.03 1017 10 16 0.00 0.00

Powered by AerisWeather